Location: Caltech
(34.1382°N, 118.1253°W)
Time: 20:03:46
(UTC-07:00)

Oscar 19 - Visible Passes

Search period start: 29 May 2016 00:00
Search period end: 08 June 2016 00:00
Orbit: 774 x 790 km, 98.5° (Epoch: 28 May)

Date Brightness Start Highest point End Pass type
(mag) Time Alt. Az. Time Alt. Az. Time Alt. Az.
29 May 11.5 02:00:29 10° NNE 02:04:28 44° ENE 02:04:28 44° ENE visible
29 May 12.4 03:41:17 10° NNW 03:44:20 16° WNW 03:45:01 16° WNW visible
30 May 12.5 01:29:25 10° NE 01:32:19 22° ENE 01:32:19 22° ENE visible
30 May 11.6 03:08:20 10° N 03:12:52 32° WNW 03:12:53 32° WNW visible
31 May 13.2 01:00:08 10° ENE 01:00:10 10° ENE 01:00:10 10° ENE visible
31 May 10.8 02:36:08 10° N 02:40:44 63° NW 02:40:44 63° NW visible
01 Jun 11.3 02:04:25 10° NNE 02:08:35 50° ENE 02:08:35 50° ENE visible
01 Jun 12.5 03:45:30 10° NNW 03:48:16 15° WNW 03:49:09 14° WNW visible
02 Jun 12.3 01:33:17 10° NE 01:36:26 25° ENE 01:36:26 25° ENE visible
02 Jun 11.7 03:12:25 10° N 03:16:49 29° WNW 03:17:00 29° WNW visible
03 Jun 13.1 01:03:29 10° ENE 01:04:17 11° ENE 01:04:17 11° ENE visible
03 Jun 10.8 02:40:09 10° N 02:44:51 60° NW 02:44:51 60° NW visible
04 Jun 11.1 02:08:23 10° NNE 02:12:42 55° ENE 02:12:42 55° ENE visible
04 Jun 12.6 03:49:48 10° NW 03:52:12 13° WNW 03:53:16 13° WNW visible
05 Jun 12.2 01:37:08 10° NE 01:40:33 27° ENE 01:40:33 27° ENE visible
05 Jun 11.8 03:16:30 10° NNW 03:20:46 27° WNW 03:21:06 27° WNW visible
06 Jun 13.0 01:07:02 10° ENE 01:08:23 13° ENE 01:08:23 13° ENE visible
06 Jun 10.9 02:44:10 10° N 02:48:57 55° WNW 02:48:57 55° WNW visible
07 Jun 10.9 02:12:19 10° NNE 02:16:47 62° NE 02:16:47 62° NE visible
07 Jun 12.7 03:54:11 10° NW 03:56:07 12° WNW 03:57:21 11° WNW visible
